Location: Kerb�bon
(47.7970°N, 3.3487°W)
Time: 12:44:57
(UTC+00:00)

USA 245 - Pass Details

Date: 12 May 2021
Orbit: 265 x 982 km, 97.9° (Epoch: 13 June)

Event Time Altitude Azimuth Distance (km) Brightness Sun altitude
Exits shadow 21:41:43 27° 233° (SW) 555 3.3 -16.0°
Maximum altitude 21:42:11 30° 260° (W) 510 3.4 -16.0°
Drops below altitude 10° 21:44:15 10° 327° (NNW) 1,098 6.2 -16.3°
Sets 21:46:13 0° 338° (NNW) 1,955 7.7 -16.4°
